Las Vegas, NV

7:21 AM PDT on March 29, 2017 (GMT -0700)
McCarran International

Weather History for KLAS - October, 2013

Change the Weather History Date:

Tuesday, October 29, 2013

  Actual Average Record
Temperature  
Mean Temperature 57 °F 64 °F  
Max Temperature 63 °F 75 °F 90 °F (1950)
Min Temperature 50 °F 54 °F 30 °F (1971)
Degree Days  
Heating Degree Days 8 3  
Month to date heating degree days 31 30  
Since 1 July heating degree days 31 31  
Cooling Degree Days 0 2  
Month to date cooling degree days 103 174  
Year to date cooling degree days 3761 3551  
Growing Degree Days 6 (Base 50)    
Moisture  
Dew Point 33 °F    
Average Humidity 41    
Maximum Humidity 54    
Minimum Humidity 27    
Precipitation  
Precipitation 0.00 in 0.01 in 0.09 in (1942)
Month to date precipitation T 0.25  
Year to date precipitation 1.54 3.31  
Snow  
Snow 0.00 in 0.00 in 0.00 in ()
Month to date snowfall 0.0 0.0  
Since 1 July snowfall 0.0 0.0  
Since 1 September snowfall 0.0 0.0  
Snow Depth 0.00 in    
Sea Level Pressure  
Sea Level Pressure 29.81 in    
Wind  
Wind Speed 13 mph (SSW)    
Max Wind Speed 23 mph    
Max Gust Speed 30 mph    
Visibility 10 miles    
Events      
T = Trace of Precipitation, MM = Missing Value Source: NWS Daily Summary

Daily Weather History Graph

Daily Weather History Graph

Search for Another Location

Airport or City:

Trip Planner

Search our weather history database for the weather conditions in past years. The results will help you decide how hot, cold, wet, or windy it might be!

Date:

Astronomy

Oct. 29, 2013 Rise Set
Actual Time 7:00 AM PDT 5:47 PM PDT
Civil Twilight 6:34 AM PDT 6:13 PM PDT
Nautical Twilight 6:04 AM PDT 6:43 PM PDT
Astronomical Twilight 5:34 AM PDT 7:13 PM PDT
Moon 2:03 AM PDT 2:55 PM PDT
Length of Visible Light 11h 39m
Length of Day
10h 46m
Waning Crescent, 24% of the Moon is Illuminated
Oct 29
Waning Crescent
Nov 3
New
Nov 9
First Quarter
Nov 17
Full
Nov 25
Last Quarter

Hourly Weather History & Observations

Time (PDT) Temp. Dew Point Humidity Pressure Visibility Wind Dir Wind Speed Gust Speed Precip Events Conditions
12:56 AM 54.0 °F 34.0 °F 47% 29.73 in 10.0 mi SSW 15.0 mph 23.0 mph N/A   Partly Cloudy
1:56 AM 54.0 °F 34.0 °F 47% 29.75 in 10.0 mi SSW 17.3 mph 28.8 mph N/A   Clear
2:56 AM 53.1 °F 34.0 °F 48% 29.75 in 10.0 mi SSW 13.8 mph - N/A   Partly Cloudy
3:56 AM 52.0 °F 34.0 °F 50% 29.75 in 10.0 mi South 12.7 mph - N/A   Partly Cloudy
4:56 AM 52.0 °F 33.1 °F 49% 29.77 in 10.0 mi SSW 10.4 mph - N/A   Partly Cloudy
5:56 AM 50.0 °F 33.1 °F 52% 29.79 in 10.0 mi South 12.7 mph - N/A   Scattered Clouds
6:56 AM 51.1 °F 35.1 °F 54% 29.80 in 10.0 mi SSW 13.8 mph - N/A   Scattered Clouds
7:56 AM 52.0 °F 35.1 °F 53% 29.83 in 10.0 mi South 15.0 mph - N/A   Partly Cloudy
8:56 AM 53.1 °F 35.1 °F 50% 29.85 in 10.0 mi South 10.4 mph - N/A   Partly Cloudy
9:56 AM 55.9 °F 34.0 °F 44% 29.85 in 10.0 mi South 17.3 mph 20.7 mph N/A   Scattered Clouds
10:56 AM 57.9 °F 32.0 °F 37% 29.85 in 10.0 mi South 17.3 mph 23.0 mph N/A   Scattered Clouds
11:56 AM 60.1 °F 30.9 °F 33% 29.82 in 10.0 mi SSW 12.7 mph 20.7 mph N/A   Scattered Clouds
12:56 PM 61.0 °F 30.0 °F 31% 29.80 in 10.0 mi SSW 16.1 mph 24.2 mph N/A   Scattered Clouds
1:56 PM 63.0 °F 28.9 °F 28% 29.78 in 10.0 mi SSW 16.1 mph 24.2 mph N/A   Scattered Clouds
2:56 PM 62.1 °F 28.0 °F 28% 29.78 in 10.0 mi South 18.4 mph 25.3 mph N/A   Mostly Cloudy
3:56 PM 62.1 °F 28.9 °F 29% 29.79 in 10.0 mi South 17.3 mph - N/A   Scattered Clouds
4:56 PM 60.1 °F 30.0 °F 32% 29.79 in 10.0 mi SSW 12.7 mph 20.7 mph N/A   Mostly Cloudy
5:56 PM 60.1 °F 30.0 °F 32% 29.81 in 10.0 mi SSW 13.8 mph 23.0 mph N/A   Mostly Cloudy
6:56 PM 57.0 °F 35.1 °F 44% 29.83 in 10.0 mi NW 11.5 mph - N/A   Mostly Cloudy
7:56 PM 55.9 °F 35.1 °F 45% 29.85 in 10.0 mi WNW 10.4 mph - N/A   Mostly Cloudy
8:56 PM 55.9 °F 35.1 °F 45% 29.86 in 10.0 mi NW 8.1 mph - N/A   Overcast
9:56 PM 55.9 °F 35.1 °F 45% 29.88 in 10.0 mi NW 8.1 mph - N/A   Scattered Clouds
10:56 PM 55.0 °F 34.0 °F 45% 29.88 in 10.0 mi NNW 8.1 mph - N/A   Mostly Cloudy
11:56 PM 55.0 °F 34.0 °F 45% 29.89 in 10.0 mi Variable 3.5 mph - N/A   Overcast